sat.trackr.live / text

‹ back to catalog

STARLINK-30713

NORAD 57952 · 2023-148T

PAYLOAD ACTIVE UNKNOWN

§ Identity

Operator
Country
US
Launch date
2023-09-25
Launch site
AFWTR
Launch vehicle
Mass (kg)
RCS (m²)

Purposes: comms

External: N2YO · Heavens-Above · Gunter

§ Orbital elements

Epoch: 2026-09-20T04:52:58.916352Z

Period
93.85 min
Inclination
53.1607°
Eccentricity
0.0001280
Mean motion
15.34385857 rev/d
Perigee alt
461.9 km
Apogee alt
463.6 km
Semi-major
6,840.9 km
B*
2.6858e-5
RAAN
197.2204°
Arg perigee
93.0128°
Mean anomaly
267.1021°
Rev number
16,825

§ Raw data

STARLINK-307131 57952U 23148T   26263.20345968  .00000531  00000+0  26858-4 0  99932 57952  53.1607 197.2204 0001280  93.0128 267.1021 15.34385857168251

JSON: /api/v1/satellites/57952 · /tle

For live sub-satellite position, see the globe view (requires WebGL).

§ Visibility from observer

Set your observer location to see the next 7 days of passes ≥ 10°. The values pass through the URL so the page stays shareable.

No JS? Fill the form by hand. The geolocation button needs JavaScript.